Starlink 30928

operational
NORAD ID: 58452 Int'l Des: 2023-183 Owner: SPXS Country: US Constellation: starlink
LEOCIRCULAR

Starlink 30928について

説明を読み込み中...

リアルタイム位置

3D地球を読み込み中...

次回通過

高度履歴

Altitude vs Time

uPlot chart will show altitude changes over time

軌道要素

1 58452U 23183R 25258.55116059 -.00000117 00000-0 63938-5 0 9999
2 58452 43.0034 274.5679 0001241 276.8284 83.2417 15.02535823100375
Epoch: Sep 15, 2025 • Age: 15 hours

現在のステータス

高度 559.1 km
速度 7.59 km/s
衛星直下点 23.56°N, 112.53°W
打ち上げ日 Nov 28, 2023
運用期間 1.7 years
タイプ internet

技術仕様

分類 Payload
質量 730.00 kg
乾燥質量 700.00 kg
総質量 730.00 kg
長さ 0.30 m
直径 4.10 m
スパン 29.00 m
形状 Box + pan
製造者 SPXS
バスタイプ Starlink V2M
フェーズステータス In Orbit
所有者/国 SPXS/US

大規模コンステレーション

Loading constellations...